This is the latest recevied weather packets stored in our database for station/object OE3CJB-13. If no packets are shown the sender has not sent any weather packets the latest 10 day(s).
| Time | Temp. | Humidity | Pressure | Rain* | Wind** | Luminosity | Snow |
|---|---|---|---|---|---|---|---|
| 1777689014 | 6.11° C | 64% | 744.4 hPa | 0 mm | - | - | - |
| 1777688150 | 6.67° C | 63% | 744.5 hPa | 0 mm | - | - | - |
| 1777687289 | 6.67° C | 63% | 746 hPa | 0 mm | - | - | - |
| 1777686519 | 6.67° C | 62% | 746 hPa | 0 mm | - | - | - |
| 1777685414 | 7.22° C | 61% | 747.6 hPa | 0 mm | - | - | - |
| 1777684550 | 7.22° C | 61% | 748.4 hPa | 0 mm | - | - | - |
| 1777683689 | 7.22° C | 60% | 747.6 hPa | 0 mm | - | - | - |
| 1777682826 | 7.78° C | 60% | 747.6 hPa | 0 mm | - | - | - |
| 1777681814 | 7.78° C | 60% | 748.5 hPa | 0 mm | - | - | - |
| 1777680950 | 7.78° C | 59% | 749.3 hPa | 0 mm | - | - | - |
| 1777680041 | 7.78° C | 58% | 749.3 hPa | 0 mm | - | - | - |
| 1777679226 | 8.33° C | 57% | 751.7 hPa | 0 mm | - | - | - |
| 1777678214 | 8.33° C | 56% | 752.5 hPa | 0 mm | - | - | - |
| 1777677398 | 8.89° C | 55% | 752.4 hPa | 0 mm | - | - | - |
| 1777676441 | 8.89° C | 54% | 753.2 hPa | 0 mm | - | - | - |
| 1777675526 | 9.44° C | 53% | 754.8 hPa | 0 mm | - | - | - |
| 1777674667 | 9.44° C | 51% | 756.4 hPa | 0 mm | - | - | - |
| 1777673750 | 9.44° C | 48% | 757.9 hPa | 0 mm | - | - | - |
| 1777672888 | 10° C | 45% | 758.6 hPa | 0 mm | - | - | - |
| 1777671926 | 10° C | 43% | 760.1 hPa | 0 mm | - | - | - |
| 1777671014 | 10.56° C | 41% | 762.5 hPa | 0 mm | - | - | - |
| 1777670150 | 10.56° C | 39% | 764.1 hPa | 0 mm | - | - | - |
| 1777669288 | 11.11° C | 37% | 764 hPa | 0 mm | - | - | - |
| 1777668326 | 11.67° C | 35% | 764 hPa | 0 mm | - | - | - |
| 1777667606 | 12.22° C | 34% | 764.8 hPa | 0 mm | - | - | - |
* Rain latest hour (hover to see other rain measurements)
** Current wind speed in m/s (hover to see current wind gust speed)